Theta_e
305 306 307 307 308 308 308 309 310 310 310 310 311 312 312 313 313 314 314 314 314 314 314 314 314 314 314 314 314 314 314 315 315 315 314 314 314 315 315 316 318 319 320 320 321 321 321 321 320 318 316 315 314 313 312 313 316 318 318 318 317 316 317 316 315 314 313 312 312
306 307 307 308 308 308 308 309 310 310 311 312 312 312 313 313 312 312 312 312 313 313 313 313 313 313 313 313 313 313 313 313 313 313 312 312 312 312 313 314 315 316 317 318 318 319 318 318 317 315 313 312 312 311 311 312 314 314 312 311 311 311 310 309 309 309 309 309 308
305 305 306 306 306 307 307 307 308 308 309 310 310 311 311 311 311 310 310 310 311 312 312 312 311 312 311 312 312 312 311 311 311 311 311 310 311 311 311 312 313 313 314 315 316 317 317 316 315 313 312 311 310 310 309 310 311 310 308 308 308 308 307 306 305 306 306 305 305
304 304 304 304 305 305 306 307 307 307 308 309 309 310 310 310 310 309 309 310 310 310 310 310 310 310 310 310 310 310 310 310 310 310 309 310 310 310 311 311 311 311 312 312 313 313 313 313 311 310 309 309 309 308 308 308 308 307 306 305 305 305 304 303 303 303 303 301 301
303 304 304 304 304 305 305 306 306 307 307 308 309 309 310 310 309 309 309 309 309 309 309 309 309 309 309 309 309 309 308 309 308 308 308 308 309 309 309 310 310 310 310 310 310 310 310 309 308 308 307 306 306 306 306 306 305 304 303 303 302 302 301 301 300 300 300 299 299
302 303 303 304 304 304 305 305 305 306 306 307 308 308 308 308 308 308 308 308 308 308 309 309 308 308 308 308 308 307 307 307 307 307 307 307 307 307 307 308 309 309 309 309 309 308 308 308 306 305 305 305 304 305 305 304 303 302 301 300 300 299 299 299 299 298 298 297 297
302 302 302 303 303 304 304 304 305 305 305 306 306 306 306 307 307 307 307 307 307 307 308 308 308 308 308 308 307 306 306 306 306 306 306 306 306 306 306 306 306 307 307 307 307 307 307 306 305 304 304 303 303 303 303 303 302 301 299 298 298 298 298 297 297 297 297 296 296
301 302 302 302 302 303 303 303 304 304 304 305 305 305 305 305 305 306 306 306 306 306 307 307 307 307 306 306 306 306 305 305 305 305 305 305 305 304 305 305 305 305 305 306 305 305 305 305 303 303 303 302 301 301 302 301 301 299 298 297 297 297 297 297 296 296 296 295 294
301 301 301 302 302 302 302 302 303 303 303 303 303 303 303 304 304 304 304 304 304 305 305 305 305 305 305 305 305 305 304 304 304 304 304 304 303 303 303 303 303 303 303 303 303 303 303 303 302 302 301 300 300 300 300 300 299 298 297 297 296 296 296 296 295 295 294 294 293
300 300 301 301 301 301 301 301 302 302 302 302 301 302 302 302 302 302 302 303 303 303 303 304 304 304 304 304 304 304 303 303 303 303 303 303 302 302 303 302 302 302 302 302 302 302 302 302 301 300 300 299 299 299 298 299 298 297 297 296 296 295 295 294 294 293 293 292 292
299 300 300 300 300 301 301 301 301 301 301 300 300 300 301 301 301 301 302 302 302 302 302 302 303 303 303 303 303 303 303 303 302 302 302 302 301 301 302 302 301 301 301 301 302 301 301 301 300 299 298 298 298 298 298 297 297 296 295 295 294 294 293 293 293 292 292 292 291
299 299 299 300 300 300 300 301 301 300 300 300 300 300 300 300 300 300 301 301 301 301 301 301 302 302 302 301 302 302 301 301 301 300 300 300 300 300 300 300 300 300 300 300 300 300 300 299 299 298 297 297 297 297 297 296 296 295 294 293 293 292 292 292 292 292 292 291 291
298 299 299 299 299 300 300 300 300 300 300 300 300 300 300 299 300 300 300 301 300 300 300 300 300 300 300 300 300 300 300 300 300 299 299 299 299 299 299 299 299 299 299 299 299 299 299 298 298 297 297 297 297 296 296 296 295 294 293 293 292 292 291 291 291 291 291 291 291
298 298 299 299 299 300 300 300 300 300 300 299 300 300 300 300 300 300 300 299 299 299 299 299 299 299 299 299 299 299 299 299 299 299 298 298 298 298 298 298 298 298 298 298 298 298 298 297 297 297 296 295 295 295 295 294 294 293 292 292 291 291 291 291 290 291 291 290 290
297 297 298 298 299 299 300 299 299 299 299 299 300 300 300 300 300 299 299 298 298 299 298 298 298 298 298 298 298 298 298 298 298 298 297 297 297 297 297 297 297 296 296 296 297 297 297 296 296 295 295 294 294 293 293 293 292 292 292 291 291 291 290 290 290 290 290 290 290
296 296 297 298 298 299 299 299 299 299 299 299 299 299 299 299 299 299 298 298 298 298 298 298 297 297 297 297 297 297 297 297 297 297 296 296 296 296 296 296 296 295 295 295 295 295 295 295 295 295 294 293 293 293 292 292 291 291 291 291 290 290 290 290 290 290 290 290 289
295 296 296 297 297 298 298 299 299 299 298 298 298 298 298 298 298 298 298 298 297 297 297 297 297 297 297 296 296 296 296 296 296 296 296 295 295 295 295 295 295 294 294 294 294 294 294 294 294 294 294 293 293 292 292 291 291 291 290 290 290 290 290 290 290 290 290 290 289
295 295 296 296 297 297 297 297 298 297 297 297 298 298 298 298 298 297 297 298 297 297 296 296 296 296 296 296 296 296 296 295 295 295 295 295 294 294 294 294 294 294 294 293 293 293 293 293 293 293 293 293 292 292 291 291 291 290 290 290 290 290 290 290 290 290 289 288 287
294 295 295 296 296 297 297 297 297 297 297 297 297 297 297 297 297 297 297 297 297 296 296 296 296 296 296 296 296 296 295 295 294 294 294 294 294 294 293 293 293 293 293 293 292 292 292 292 292 292 292 292 291 291 291 291 291 291 290 290 290 290 290 290 290 289 288 288 287
294 294 295 295 296 296 296 296 296 296 297 297 297 297 297 296 296 296 296 296 296 296 296 295 295 295 295 295 295 295 294 294 294 294 293 293 293 293 293 292 292 292 292 292 292 292 292 291 291 291 291 291 290 290 290 290 290 290 291 291 291 291 291 291 290 289 288 287 287
293 294 294 295 295 296 296 296 296 296 296 296 296 296 296 296 296 296 295 296 296 295 295 295 295 295 294 294 294 294 293 294 293 293 293 293 292 292 292 292 292 292 292 291 291 291 291 291 291 291 291 290 290 290 290 290 290 290 290 290 291 291 291 291 291 290 289 288 288
293 294 294 295 295 295 296 296 296 296 296 296 295 295 295 295 295 295 295 295 295 295 295 295 295 294 294 294 293 293 293 293 293 292 292 292 292 291 291 292 292 291 291 291 291 290 290 290 290 290 290 290 290 290 290 289 289 289 289 289 290 290 290 291 291 291 291 290 289
293 293 294 294 295 295 295 295 295 295 295 295 295 295 295 295 295 295 295 295 295 294 294 294 294 294 294 294 293 293 293 292 292 291 291 291 291 291 291 291 291 291 290 290 290 290 290 290 289 290 290 289 290 289 289 289 289 289 289 289 289 289 289 289 289 290 290 290 290
293 294 294 294 294 295 295 295 295 295 294 294 294 294 294 294 294 294 294 294 294 294 294 294 294 294 293 293 293 292 292 291 291 290 290 290 290 290 290 291 291 290 290 290 290 290 290 289 289 289 289 289 289 289 289 289 289 288 288 288 288 288 288 287 287 288 288 288 289
294 294 294 294 294 294 294 294 294 294 294 294 294 294 294 294 294 294 294 294 294 293 293 293 293 293 293 293 292 292 292 291 291 290 290 290 290 291 291 291 291 290 290 291 291 291 291 290 289 289 289 289 289 288 288 288 288 288 288 288 287 287 286 286 286 286 285 286 286
293 294 294 294 294 294 294 294 294 294 294 294 294 294 293 294 294 293 293 293 293 293 293 293 293 293 293 292 292 292 291 291 291 291 290 290 290 291 291 291 291 291 291 291 292 291 291 291 290 290 289 289 288 288 288 288 288 288 288 288 287 287 286 285 284 284 284 284 283
293 293 293 294 294 294 293 294 294 294 293 293 293 293 293 293 293 293 293 293 293 293 293 293 293 293 293 292 292 292 292 291 292 292 291 291 291 291 291 291 291 292 292 292 292 292 292 291 291 290 289 288 288 288 288 288 288 287 287 286 285 285 284 284 283 283 283 283 282
293 293 293 293 293 293 293 293 293 293 293 293 293 293 293 293 293 293 293 293 293 293 293 293 294 294 294 293 293 293 293 293 293 293 293 293 292 292 292 292 292 292 293 293 293 293 292 292 291 290 289 289 288 288 288 288 287 286 284 283 283 283 283 283 283 283 283 282 282
293 293 293 293 293 293 293 293 293 293 293 293 293 293 293 293 293 293 292 292 293 293 293 293 294 294 294 293 293 293 293 293 293 293 293 293 293 293 293 293 293 293 294 294 293 293 293 292 291 291 290 289 288 287 287 286 285 284 283 282 282 282 282 282 282 283 283 283 283
294 293 293 293 293 293 293 293 293 293 293 293 293 293 292 292 292 292 292 292 292 292 293 293 293 293 293 293 293 293 293 293 294 293 293 293 293 293 293 293 293 294 294 294 294 293 293 292 291 291 290 288 285 283 283 283 283 282 282 281 281 281 281 281 281 282 282 282 282
293 293 293 293 293 293 293 293 293 293 293 292 292 292 292 292 292 291 292 292 292 292 293 293 292 292 292 292 292 292 292 293 293 293 293 293 293 293 293 293 294 294 294 294 294 293 293 292 291 290 289 287 284 282 281 281 280 280 280 280 280 279 280 280 280 280 281 282 282
293 293 293 293 293 292 292 293 292 292 292 292 291 291 291 291 291 291 292 292 292 292 292 292 292 292 292 292 292 292 292 292 292 292 293 293 293 293 293 293 293 294 294 294 294 293 292 292 291 289 288 286 282 279 278 279 278 278 278 277 277 277 278 278 278 278 278 279 281
293 293 293 293 292 292 292 292 292 291 291 291 291 291 291 291 291 291 291 291 291 291 291 291 291 291 291 291 291 291 291 292 292 292 292 293 293 293 293 293 293 293 294 294 293 292 292 291 290 289 287 284 280 278 276 277 277 277 276 275 274 274 274 274 275 276 276 276 277
293 293 293 292 292 292 292 292 291 291 291 290 290 290 290 290 290 290 290 291 291 291 291 291 291 291 291 291 291 291 291 291 291 291 292 292 292 292 292 292 292 293 293 293 292 292 291 290 289 288 286 283 279 277 277 277 277 276 276 275 274 273 272 272 272 272 273 273 274
293 293 292 292 292 292 291 291 291 290 290 290 290 290 290 290 289 290 290 290 290 290 290 290 290 290 290 290 291 291 290 290 290 290 291 291 291 291 291 291 292 292 292 292 292 291 290 289 288 287 285 281 278 277 277 277 277 277 276 276 275 274 273 273 272 272 271 271 272
293 293 292 292 292 291 291 290 290 290 289 289 289 289 289 289 289 289 290 290 289 289 289 289 289 289 289 289 289 289 288 287 287 287 287 288 288 288 288 289 290 291 291 291 291 290 289 289 287 286 283 280 277 277 277 277 277 277 277 277 276 275 274 274 273 273 272 272 272
293 293 292 292 291 291 290 290 290 289 289 289 288 288 288 288 288 289 289 289 288 288 288 288 288 287 287 286 285 284 283 282 283 283 283 284 284 283 284 285 286 288 290 290 290 289 289 288 287 285 282 278 277 277 277 277 277 277 277 277 276 275 274 274 274 274 274 274 275
293 293 292 292 291 290 290 290 289 289 288 288 288 288 288 288 288 288 289 289 288 287 287 287 286 285 284 282 280 279 279 279 280 280 280 280 280 281 281 283 283 286 288 289 289 289 288 288 287 285 282 279 278 277 278 278 277 277 277 277 277 276 275 274 274 275 276 278 283
293 293 292 291 291 290 290 289 289 288 288 288 287 287 288 288 288 288 288 288 288 287 286 286 284 283 282 280 279 278 278 278 279 278 277 277 279 281 282 281 282 284 287 289 289 288 288 287 287 285 283 280 278 278 278 278 277 277 277 277 277 277 276 275 275 276 277 279 284
292 292 291 291 290 289 289 288 288 288 288 287 287 287 287 287 287 287 287 287 287 286 286 285 283 282 281 280 277 276 276 276 276 277 278 277 279 282 282 280 280 282 284 287 288 288 288 288 287 286 283 279 277 277 278 278 278 277 277 276 277 278 278 277 276 276 277 277 280
291 290 290 289 288 288 288 287 287 287 287 287 286 287 287 287 287 287 286 286 286 286 285 284 283 281 280 279 277 275 275 275 275 276 276 276 276 278 279 277 277 277 279 283 288 289 288 288 287 286 284 279 277 277 278 279 279 278 277 276 275 276 277 278 278 277 277 277 277
Wind_Speed
4 3 3 3 3 3 3 2 2 2 2 2 2 2 2 2 2 2 2 2 2 2 2 2 2 2 3 4 4 4 4 4 5 5 6 6 5 5 4 4 3 3 3 3 3 3 3 4 3 3 3 3 3 3 2 1 1 1 2 2 1 1 2 2 2 3 4 4 3
5 4 4 4 4 3 3 3 3 3 2 2 2 2 2 2 2 2 2 2 2 2 2 2 3 3 4 4 4 4 5 5 6 6 6 6 6 5 5 4 4 3 3 3 3 3 3 4 4 4 3 3 3 3 3 2 3 3 4 4 3 3 3 4 4 5 5 5 5
5 5 5 4 4 4 3 3 3 3 3 3 3 2 2 3 3 3 3 3 3 3 3 2 3 4 4 5 5 5 5 6 6 7 6 6 6 6 5 5 5 5 4 4 3 3 4 4 4 4 3 3 3 4 4 3 4 5 5 5 3 3 4 4 4 4 4 4 5
6 5 5 5 5 5 4 3 3 4 3 3 3 3 3 3 3 3 3 3 3 3 3 3 3 4 4 5 6 6 6 7 7 7 7 6 7 7 6 6 6 6 6 5 5 5 6 5 4 4 4 4 4 4 4 4 5 5 5 4 4 4 4 4 4 4 4 4 5
6 5 5 5 5 5 4 4 4 4 3 3 3 3 3 3 3 3 3 3 4 4 4 4 3 4 4 5 6 7 7 8 7 7 7 7 7 7 7 7 7 7 7 7 7 7 7 6 5 4 4 5 4 4 4 5 6 6 5 4 4 4 4 4 4 4 4 4 5
6 5 5 5 5 5 4 4 4 4 3 3 3 4 4 3 3 3 4 4 4 4 4 5 4 4 5 5 6 7 7 7 7 7 7 7 7 7 8 8 8 7 7 7 7 7 7 6 5 5 5 5 5 5 5 6 6 6 6 5 5 4 4 5 4 4 4 5 6
6 6 5 5 5 5 4 4 4 4 4 4 5 5 5 4 4 5 5 4 4 4 4 4 4 4 5 5 6 6 7 6 7 7 7 7 7 8 8 8 8 8 8 7 7 7 7 6 5 5 5 5 4 5 6 6 6 7 7 6 5 5 5 5 4 5 5 7 7
6 6 6 5 5 5 5 5 4 4 4 4 5 6 6 6 6 5 5 4 4 4 4 4 4 5 5 5 6 6 6 7 7 7 7 7 7 8 8 8 8 8 8 7 7 7 7 6 5 5 5 4 4 4 6 7 8 8 8 7 5 5 4 4 5 5 6 8 8
6 6 6 6 6 6 6 6 6 6 6 6 6 6 6 6 6 5 5 4 4 4 4 4 5 5 6 6 7 6 6 7 7 7 7 7 7 7 7 7 8 8 8 7 8 8 7 6 5 5 5 4 4 5 6 8 9 9 8 7 6 6 5 5 6 6 7 8 8
6 6 6 6 6 6 6 6 7 7 7 7 7 6 6 6 5 5 4 4 4 4 4 4 5 6 6 7 7 6 6 6 6 7 7 7 7 7 7 7 7 7 7 7 7 7 7 6 6 6 6 6 6 7 7 8 9 9 8 6 7 7 7 7 7 7 7 8 9
6 6 6 6 6 6 6 6 6 6 6 6 6 6 6 6 5 5 4 4 5 5 5 5 5 6 6 6 6 6 6 6 6 6 7 7 7 7 7 7 7 7 7 7 6 6 6 5 6 7 7 7 7 8 8 8 9 9 9 7 8 8 8 7 7 7 7 8 9
7 6 6 6 6 6 6 6 6 6 6 6 6 6 6 5 5 5 5 5 6 6 5 5 5 6 5 5 5 6 6 6 6 7 7 7 7 8 8 8 8 8 7 7 6 5 5 6 7 8 9 8 7 6 7 8 9 9 9 8 8 8 8 8 7 7 6 7 8
7 6 6 6 6 6 6 6 6 6 6 6 6 6 5 5 5 5 5 6 6 5 5 5 6 6 6 5 5 5 6 6 6 7 7 7 7 7 7 8 8 8 7 6 6 5 6 6 8 8 9 8 7 6 7 8 9 9 9 8 8 8 8 8 8 7 7 8 8
6 6 6 6 6 6 6 6 5 5 5 6 5 5 5 4 4 5 5 5 5 5 5 5 5 6 6 6 6 6 6 6 7 7 7 7 7 7 7 7 8 7 7 6 6 6 7 7 8 9 9 9 8 7 7 8 8 8 8 8 8 9 9 8 8 8 8 8 9
6 6 6 5 6 6 6 6 5 5 5 5 5 4 4 4 4 4 5 5 5 5 5 5 5 5 6 6 6 6 6 7 7 7 8 7 7 7 7 7 7 7 7 6 7 7 7 8 8 9 9 9 9 8 8 8 8 8 8 9 9 9 8 8 8 8 8 8 8
6 5 5 5 5 6 5 5 4 4 4 4 4 4 4 4 4 4 5 5 5 5 5 5 5 5 5 6 6 6 6 7 7 7 7 7 7 7 8 7 7 7 7 7 7 7 7 7 8 9 9 9 9 9 9 9 9 9 9 9 9 9 8 8 8 7 8 8 8
6 5 5 5 5 6 5 5 4 4 4 4 4 4 4 3 3 4 4 4 4 4 5 5 5 5 5 6 6 6 6 6 6 7 7 7 7 7 8 8 7 7 8 8 8 8 8 7 8 9 9 10 9 9 9 10 10 10 10 9 9 9 8 8 8 7 8 8 8
6 5 5 5 6 6 5 5 4 4 4 4 4 4 4 3 4 4 4 4 4 5 6 6 5 5 5 6 5 5 5 6 6 6 7 7 7 7 8 8 8 8 8 8 8 8 8 8 9 9 9 9 9 9 10 10 10 10 10 9 9 9 9 8 8 7 7 8 7
6 5 5 5 6 5 5 5 4 4 4 4 4 4 4 4 4 4 4 4 5 5 6 6 6 6 6 6 6 6 5 6 7 7 7 7 7 7 8 8 8 8 8 8 8 8 8 9 9 9 9 9 9 10 10 10 10 10 10 10 10 9 9 9 8 7 7 7 7
5 6 6 6 5 5 5 4 4 4 4 4 4 4 4 4 4 5 5 5 5 5 6 6 6 6 6 6 7 6 6 5 6 7 7 7 7 8 8 8 8 8 8 8 8 8 9 9 9 10 10 10 10 10 10 10 10 10 10 9 9 10 9 9 8 8 7 7 7
5 5 6 6 6 5 5 4 4 4 5 5 5 5 5 5 5 5 5 5 5 6 6 6 6 6 6 7 7 7 6 5 6 7 7 7 8 8 7 7 8 8 8 8 8 9 9 9 9 9 10 10 10 10 10 10 10 10 10 9 9 9 9 9 9 8 7 6 6
5 5 5 6 6 5 5 5 5 5 5 5 5 5 5 5 5 5 6 6 6 6 6 6 6 6 7 7 7 7 6 6 6 6 7 7 7 7 7 7 8 8 8 8 8 8 9 9 9 9 9 9 10 10 10 10 10 10 10 10 9 9 9 8 8 8 7 6 5
5 5 5 5 5 5 5 5 5 5 5 5 5 5 5 6 6 6 6 6 6 6 6 6 6 6 7 7 7 7 7 7 7 7 7 7 7 7 7 7 8 8 8 7 8 8 8 9 9 9 9 9 9 9 9 10 9 9 10 10 9 9 8 7 7 7 6 6 5
5 5 5 4 5 5 5 5 5 5 5 5 5 5 6 6 6 6 6 6 6 6 6 6 6 6 7 7 8 8 8 8 8 8 8 8 8 7 7 7 7 7 7 6 7 7 7 7 7 8 8 8 8 9 9 9 9 9 9 10 9 8 7 6 6 6 6 6 5
5 5 5 5 5 5 5 5 6 6 6 5 5 5 6 6 6 6 6 6 6 7 7 7 7 7 7 8 8 8 8 9 9 9 9 8 8 7 7 6 6 5 5 6 9 9 9 8 7 7 7 7 8 8 8 8 9 9 9 9 8 8 7 6 6 6 6 6 5
5 5 5 5 5 5 5 5 6 6 6 6 5 5 5 6 6 6 7 7 7 7 7 7 7 7 7 8 8 8 8 8 8 8 8 8 8 7 7 6 5 5 5 7 10 11 11 10 9 8 7 7 7 8 8 8 8 8 8 8 7 7 6 6 5 5 5 5 5
6 6 5 5 5 5 5 5 5 6 6 6 6 6 6 6 6 6 7 7 7 7 7 7 7 8 8 8 8 9 8 7 7 8 8 8 8 7 7 6 5 5 6 9 11 12 12 12 12 10 8 6 7 7 7 7 7 6 6 6 5 5 5 5 5 5 4 5 5
6 6 5 5 5 5 5 5 5 6 6 6 6 6 6 6 7 7 7 7 7 7 6 6 6 6 6 6 7 8 8 8 7 7 7 7 8 7 7 6 6 6 8 11 12 13 13 13 13 12 10 8 7 6 7 6 6 5 5 4 4 4 5 5 5 5 5 4 4
7 6 6 6 5 5 5 5 5 6 6 6 6 6 6 6 7 7 7 7 6 6 5 5 4 4 4 5 6 7 7 7 6 6 6 7 7 7 7 7 7 8 11 13 13 13 13 13 13 13 11 9 6 5 4 5 5 5 4 4 4 4 4 4 4 4 5 5 5
7 7 6 6 6 6 5 5 5 5 5 5 6 6 6 7 7 7 7 6 6 5 5 4 4 5 6 6 7 7 7 7 6 6 7 8 8 8 8 8 7 9 11 14 14 14 14 14 13 12 11 9 6 5 4 4 4 5 4 4 4 4 4 4 4 4 4 4 4
7 7 7 7 6 6 6 5 5 5 5 5 6 6 6 7 7 6 6 6 5 5 5 6 7 7 7 7 7 7 7 7 7 7 7 8 8 9 8 8 8 9 11 14 14 14 14 13 13 12 11 10 7 5 4 5 5 5 4 4 4 4 4 4 4 4 4 4 4
8 8 8 7 7 7 6 6 6 6 6 6 7 7 6 6 6 6 6 5 6 6 7 7 8 8 8 8 8 8 8 7 7 7 7 8 8 9 9 9 9 9 11 13 13 13 13 13 13 13 12 11 8 6 5 5 5 5 5 4 4 4 4 3 3 3 3 3 3
8 8 8 8 7 7 7 6 6 6 6 7 7 7 7 6 6 6 6 5 6 6 7 8 8 9 9 8 8 8 8 8 8 8 8 8 8 9 9 8 8 9 11 13 13 13 13 13 13 13 13 12 9 7 6 6 5 5 4 4 4 3 3 3 2 2 2 2 2
8 8 8 8 8 8 7 7 7 7 7 7 7 7 7 6 6 6 6 5 5 6 6 7 7 8 8 8 8 8 8 7 7 7 8 8 8 9 8 7 6 9 12 14 14 14 14 14 14 14 13 12 8 6 6 6 5 5 4 4 3 3 2 2 1 1 1 1 1
9 9 9 8 8 8 8 8 7 7 7 7 7 7 7 7 6 6 6 6 6 6 6 6 7 7 7 7 7 8 8 7 7 6 7 7 8 8 8 8 7 10 13 14 14 14 14 14 15 14 13 10 6 5 5 6 5 5 5 4 3 3 2 1 1 1 1 1 1
9 9 9 8 8 8 8 8 8 8 8 8 8 7 7 6 6 6 6 7 7 7 7 7 7 7 7 7 7 6 6 6 6 6 5 6 6 7 7 6 7 10 13 14 14 14 14 15 15 14 11 8 5 4 4 5 4 4 4 4 4 3 2 1 0 1 1 2 2
9 9 9 9 9 9 9 8 8 8 8 8 8 7 7 7 6 6 6 7 7 7 7 7 7 7 7 7 6 5 5 4 5 5 5 6 5 5 5 4 5 8 12 13 14 14 14 15 14 13 10 6 5 4 4 4 3 3 4 4 3 2 1 1 1 1 1 1 2
9 9 9 9 9 9 9 8 9 9 8 8 8 7 7 7 6 6 6 6 7 7 7 7 7 6 6 6 5 5 4 4 4 5 5 5 4 4 4 4 4 7 10 13 13 14 14 14 14 12 9 6 5 4 4 3 3 3 3 3 2 1 1 1 1 1 1 2 1
9 9 9 9 9 9 9 9 9 9 9 8 8 7 7 7 6 6 6 6 6 6 7 7 6 6 6 6 5 5 4 5 5 5 4 3 2 3 4 4 3 5 8 12 13 13 13 14 13 12 9 6 5 4 3 3 3 3 2 2 2 1 1 1 1 2 2 4 5
8 8 9 9 9 9 9 8 8 8 8 8 8 7 7 7 6 6 6 5 6 6 6 6 6 6 5 6 5 5 4 4 4 4 4 3 2 3 4 4 2 2 4 9 12 13 13 13 13 11 9 5 4 3 3 3 3 3 2 1 1 1 1 2 2 2 2 3 5
7 7 8 8 8 8 8 8 8 7 7 8 8 7 7 7 7 6 6 5 6 6 5 6 6 6 5 5 5 5 4 4 3 3 3 3 3 3 3 3 2 1 0 5 11 13 13 12 12 11 9 5 3 3 3 3 3 3 2 1 1 1 1 1 2 2 2 3 3
Wind_Direction
78 83 90 96 96 95 92 88 83 82 84 88 91 93 93 92 87 80 71 62 62 58 51 43 31 21 15 14 21 30 40 48 56 59 58 55 50 45 42 45 53 73 97 112 117 118 116 112 102 91 80 74 75 73 62 19 35 68 88 80 84 94 102 106 90 85 86 88 87
65 66 71 77 80 84 84 80 76 75 75 76 79 78 77 76 75 71 65 58 58 60 58 52 39 32 31 32 36 41 46 51 55 57 56 53 50 48 48 51 52 58 72 92 104 110 111 108 103 99 94 90 88 83 71 46 53 61 63 57 56 62 69 74 72 74 79 84 85
62 61 62 62 65 72 78 82 78 76 75 72 71 71 72 72 73 72 68 62 58 57 57 54 45 40 40 43 46 48 50 53 57 59 60 57 53 53 54 58 59 58 60 66 75 83 88 91 91 93 97 102 101 97 90 79 79 78 74 66 64 68 72 75 73 74 77 80 80
61 62 63 63 65 70 76 84 84 83 81 80 79 79 79 77 77 76 74 70 62 58 56 54 53 49 48 52 55 56 56 56 60 62 63 61 57 57 60 65 65 64 63 64 68 72 76 78 79 79 80 83 89 93 96 98 92 88 83 72 68 69 72 75 72 72 76 79 78
65 65 67 69 72 75 78 80 82 82 81 81 85 86 84 82 81 80 77 72 67 62 60 60 61 61 60 61 63 62 60 58 59 61 62 61 58 57 59 63 67 68 69 70 72 75 78 80 79 77 74 73 76 80 87 94 93 90 84 72 64 66 71 75 72 73 76 81 79
75 73 73 74 76 78 79 78 79 80 80 78 81 82 83 80 80 82 81 80 75 70 67 66 68 69 69 67 68 67 65 62 61 62 63 63 61 59 59 61 64 67 69 72 75 78 81 84 83 80 78 78 79 81 85 91 92 89 84 74 66 65 69 73 74 76 79 83 84
82 80 77 75 77 79 81 82 82 81 80 79 78 79 80 80 82 83 83 81 76 70 65 65 68 71 73 72 72 72 71 69 67 66 65 66 64 63 62 62 63 64 66 70 74 77 79 83 85 85 83 81 81 81 84 90 92 91 87 82 74 72 74 77 79 82 84 86 87
84 82 80 79 79 79 80 81 83 83 81 78 77 77 79 80 81 80 78 73 68 65 64 65 67 71 75 77 77 76 75 74 70 68 66 67 66 66 65 65 65 65 64 66 71 74 77 79 82 84 85 83 82 81 84 88 91 92 91 89 84 79 78 81 83 86 87 88 86
87 85 83 82 82 81 81 80 80 82 82 81 78 76 76 76 76 75 73 69 65 64 64 67 70 72 75 77 77 77 75 74 72 69 66 66 66 66 66 67 67 67 66 65 68 72 75 77 80 83 86 87 85 84 85 88 92 93 94 93 89 85 82 82 83 85 86 86 84
93 90 88 86 85 86 85 84 81 81 82 81 77 75 74 73 72 72 72 74 70 66 65 68 70 72 74 75 75 75 75 75 74 71 69 66 67 67 67 68 69 70 69 67 69 71 75 79 83 86 87 89 89 88 87 89 92 93 93 93 92 89 86 82 82 82 84 85 85
96 94 93 92 91 91 91 88 84 82 81 80 77 74 73 72 71 73 77 82 77 71 66 65 70 72 74 74 74 75 76 76 76 75 73 71 70 70 70 70 70 71 71 70 72 75 79 85 90 90 89 88 88 88 89 90 92 92 92 93 94 92 89 84 82 82 83 86 88
99 98 97 97 97 96 94 91 87 84 82 82 79 77 75 72 73 76 81 84 82 76 69 64 67 71 73 73 73 74 75 76 78 77 76 74 74 74 74 73 73 73 73 73 76 80 86 91 94 93 91 88 88 90 92 94 94 94 94 95 95 93 92 89 86 85 87 89 89
104 104 102 102 101 98 95 93 91 88 85 84 82 81 79 76 74 76 79 82 82 78 72 65 65 67 69 71 73 75 76 78 79 78 78 76 76 76 76 76 76 76 76 76 79 85 91 94 95 94 93 90 89 90 92 93 94 96 97 97 95 94 93 92 91 91 92 93 92
106 106 106 106 104 101 98 96 95 92 89 87 86 86 84 80 76 74 75 77 78 76 73 67 64 63 65 70 76 79 81 83 83 82 81 79 78 77 78 77 77 78 79 79 81 86 91 95 95 94 93 92 90 89 88 89 92 94 96 97 96 95 95 94 94 96 97 97 96
104 104 105 107 106 104 101 100 99 96 93 90 88 86 84 81 76 75 75 75 75 75 74 73 71 69 69 70 74 78 81 83 84 85 84 83 82 81 81 81 81 82 83 83 82 84 87 92 94 95 95 94 92 89 87 87 89 91 92 94 96 96 96 96 97 99 100 101 100
103 103 104 106 106 105 104 104 103 100 97 94 90 87 84 82 80 80 81 81 81 81 82 83 84 81 78 75 74 76 79 83 85 87 88 88 87 86 86 86 86 86 86 86 85 84 85 87 91 94 95 95 93 91 89 89 89 89 91 93 95 96 96 97 98 99 100 102 102
106 105 105 106 106 107 107 108 106 104 101 99 95 93 91 90 90 90 91 94 95 95 94 92 91 89 86 83 81 81 83 86 87 89 90 91 91 90 89 88 88 87 88 88 89 89 89 89 91 92 93 93 93 92 91 91 91 92 94 96 97 97 97 97 96 96 98 99 100
110 110 109 108 108 109 109 109 108 106 105 103 100 99 99 101 102 101 101 103 106 106 104 99 96 94 94 93 90 88 87 87 89 91 92 93 93 92 91 90 88 88 88 90 92 93 94 93 92 92 92 93 93 93 93 93 95 96 97 97 97 96 95 92 91 92 94 96 99
118 117 116 115 115 114 113 111 111 110 109 106 105 105 105 106 108 108 108 107 108 108 107 105 103 101 99 97 93 90 87 88 91 93 94 94 92 91 91 91 89 89 89 90 91 91 91 91 91 92 93 95 95 96 96 97 99 100 100 99 97 96 93 91 89 89 91 95 98
127 127 127 126 125 123 120 117 117 117 115 112 110 109 109 110 111 111 111 110 108 108 108 109 108 105 101 97 94 91 89 89 92 94 94 93 91 91 91 92 92 91 90 90 90 90 90 90 92 94 97 99 100 101 101 102 102 101 100 98 97 95 94 92 91 92 93 97 100
137 138 138 137 136 133 130 127 125 123 121 118 115 114 114 113 112 112 112 111 110 109 109 109 109 107 103 100 98 96 94 92 92 93 93 92 91 91 91 92 92 91 91 90 91 91 92 94 97 100 102 104 105 106 106 106 105 103 100 98 97 96 95 95 95 96 99 103 107
146 146 146 146 144 140 136 132 130 128 125 122 120 119 118 117 114 113 112 111 110 108 108 107 107 107 106 105 104 102 100 96 93 91 90 90 89 89 89 90 91 91 92 92 93 94 95 96 99 102 105 107 108 109 109 109 107 104 102 99 97 94 91 90 91 92 94 97 107
152 153 152 151 148 143 138 135 134 131 128 125 124 122 122 121 120 117 114 113 112 111 109 107 106 107 107 107 106 105 103 99 94 91 88 88 89 89 89 89 91 92 93 94 95 97 99 100 101 103 105 107 109 109 109 109 108 106 104 102 99 94 87 81 79 77 76 75 82
155 156 156 155 150 145 141 139 137 134 132 129 128 128 127 127 125 121 118 116 115 114 113 110 109 108 108 107 106 104 103 102 99 95 93 91 92 92 92 92 92 93 95 98 102 105 106 107 108 108 108 109 109 109 109 109 109 109 109 108 104 98 90 79 71 65 62 57 55
155 157 157 155 152 149 146 143 140 137 135 133 132 131 131 131 128 125 121 119 117 116 115 114 113 111 109 108 106 105 104 104 103 102 100 99 99 99 99 98 99 102 106 111 115 115 114 115 115 115 114 112 111 110 109 109 110 111 111 111 108 104 96 84 72 64 58 53 46
155 157 157 156 154 152 149 145 141 138 137 136 134 134 133 133 129 126 124 122 121 120 119 119 118 117 115 113 112 111 110 109 109 110 111 112 113 113 113 112 112 114 119 123 123 122 121 120 119 118 116 116 115 115 114 113 111 110 109 109 108 106 102 93 79 68 59 53 44
156 158 158 157 155 151 148 144 142 141 139 139 137 136 135 134 130 128 126 126 126 125 124 124 124 124 123 122 123 123 123 123 123 124 125 126 126 124 122 119 119 121 125 127 126 125 124 123 121 119 116 113 115 117 117 114 110 105 102 101 102 104 105 103 95 83 71 59 49
159 159 158 156 153 149 145 143 144 144 143 142 140 137 134 132 130 128 128 129 129 128 128 128 129 129 130 132 132 132 131 131 132 133 133 132 128 125 122 120 121 123 126 127 126 125 124 124 123 122 120 117 114 114 113 112 107 101 96 95 98 102 104 105 103 98 90 77 65
158 157 156 155 151 147 145 146 147 146 144 142 138 135 132 129 128 128 128 129 128 128 129 130 131 130 129 128 127 125 124 124 125 127 127 126 123 121 119 119 119 122 124 126 125 125 125 126 125 124 122 116 107 100 98 101 103 102 99 97 99 101 101 102 101 99 97 91 83
157 156 155 153 150 148 147 147 146 143 139 136 132 130 128 127 127 126 126 125 124 124 126 126 124 121 120 119 117 115 113 113 113 115 117 119 118 117 116 118 119 121 124 125 126 127 128 128 127 124 118 106 93 85 84 89 96 100 100 98 97 96 97 100 100 100 99 97 91
157 155 154 152 150 148 147 144 140 136 132 129 128 126 125 125 124 124 122 120 119 118 118 116 115 114 113 111 110 109 108 107 107 108 111 114 114 114 115 115 117 120 123 126 127 128 128 128 127 123 117 106 98 93 92 94 95 97 98 98 96 96 96 98 97 96 96 95 93
158 156 154 152 150 148 145 140 135 131 128 126 124 123 122 122 121 119 117 115 114 115 116 115 114 113 111 109 107 106 106 105 105 106 108 110 111 113 113 113 115 119 122 125 126 126 127 126 125 121 116 108 102 97 95 97 96 95 93 90 88 87 87 88 89 88 88 87 89
159 156 154 152 150 146 141 137 134 131 128 125 123 122 121 120 118 116 113 111 112 114 115 116 116 115 114 113 110 108 107 106 106 106 107 109 111 113 113 112 112 117 121 123 123 124 124 124 122 119 115 110 105 101 98 99 98 95 91 85 79 73 71 73 79 83 84 83 83
159 157 155 153 150 145 140 137 134 132 129 126 125 124 123 122 119 116 115 112 111 110 111 111 112 113 112 112 111 110 109 106 104 105 107 110 112 113 114 113 112 118 121 122 123 123 124 123 121 118 115 111 107 104 103 101 98 94 91 87 79 72 66 69 79 90 100 113 101
160 157 155 153 149 145 142 140 138 135 132 130 128 126 125 123 120 119 117 115 110 106 104 104 105 105 105 104 105 106 105 102 99 99 102 107 112 114 115 114 116 121 124 124 125 125 125 124 122 120 117 112 109 107 105 101 98 94 91 88 80 69 60 62 98 178 205 219 217
161 158 156 152 148 146 144 143 141 138 136 134 132 130 127 124 121 119 117 114 110 107 105 104 104 102 100 97 94 92 90 88 88 85 84 89 98 104 108 110 115 122 126 126 127 127 127 126 125 122 119 114 111 106 103 100 97 95 91 87 77 64 48 36 18 219 216 216 214
162 159 156 152 149 148 147 146 144 142 140 138 136 133 130 126 123 120 117 115 111 108 107 104 102 99 95 90 82 72 64 66 77 81 80 79 84 90 97 101 110 122 128 129 130 130 130 130 128 126 122 116 113 108 104 100 98 94 90 87 79 62 37 14 342 288 248 233 204
163 159 155 152 151 150 150 149 147 145 143 140 138 135 132 129 126 123 121 118 116 114 110 106 101 97 93 89 82 69 56 53 69 79 83 79 84 94 103 104 109 124 130 132 133 133 134 134 132 130 128 121 119 115 111 106 101 97 95 92 86 66 35 5 358 358 357 348 39
162 159 155 152 151 151 152 151 150 147 145 141 139 137 134 131 127 124 121 119 119 118 115 110 105 101 98 95 89 76 63 52 57 68 76 77 87 107 114 108 107 122 131 134 136 136 137 137 136 134 131 124 123 121 118 113 107 103 99 93 86 67 42 19 15 15 11 7 18
160 157 154 152 151 151 151 151 149 147 144 142 140 138 135 131 125 121 118 115 117 118 116 113 109 106 103 101 96 89 76 60 52 55 63 64 66 92 102 99 89 95 120 137 139 139 139 140 139 137 133 123 125 125 121 118 113 108 101 85 79 66 50 24 19 18 15 9 9
155 152 150 149 149 149 148 147 146 144 143 142 141 139 135 128 123 120 119 118 119 118 116 111 106 103 102 103 103 100 94 80 61 54 55 53 40 51 69 79 63 23 65 156 144 142 141 143 143 141 139 131 129 127 124 120 117 115 113 97 76 65 57 34 24 20 16 9 1